Location: Bojanovice
(49.8547°N, 14.3525°E)
Time: 00:35:52
(UTC+00:00)

Daily predictions for brighter satellites

Satellite Brightness Start Highest point End
(mag) Time Altitude Azimuth Time Altitude Azimuth Time Altitude Azimuth
Cosmos 2333 Rocket 4.3 02:51:55 20° NNE 02:52:43 20° NE 02:56:55 10° E
Cosmos 2360 Rocket 4.4 02:58:26 16° NNE 02:59:35 17° NNE 03:03:07 10° ENE
USA 234 3.8 03:04:56 10° ENE 03:10:26 49° NNE 03:10:26 49° NNE
Cosmos 2219 Rocket 4.5 03:16:26 13° N 03:18:20 15° NNE 03:21:36 10° ENE
Cosmos 2322 Rocket 4.1 03:19:55 19° N 03:21:58 23° NE 03:26:24 10° E
USA 59 Rocket 1.7 03:34:44 27° SE 03:34:44 27° SE 03:37:02 10° SE
NOSS 3-1 (C) 4.0 03:34:05 53° NNW 03:35:56 72° NE 03:44:31 10° SE
CZ-2C R/B 4.4 03:35:34 10° NNE 03:36:58 19° N 03:36:58 19° N
Cosmos 1833 Rocket 4.1 03:46:20 26° N 03:46:20 26° N 03:49:04 10° NNE
ACS3 Solar Sail 4.0 03:40:16 10° N 03:40:27 11° N 03:40:27 11° N
Timation 1 Rocket 4.2 03:48:09 69° SSW 03:48:58 88° ESE 03:54:58 10° NNE
SL-16 R/B 3.1 03:46:48 30° N 03:49:06 45° NE 03:54:32 10° SE
Cosmos 2082 Rocket 2.4 03:49:32 33° S 03:52:06 69° ESE 03:57:41 10° NNE
NOSS 2-1 (C) 4.3 03:58:58 42° SE 03:58:58 42° SE 04:02:07 10° SE
COSMOS 2455 2.7 03:58:09 69° WNW 03:58:46 75° WSW 04:04:45 10° SSE
NOSS 3-4 (A) 4.0 04:02:31 37° NNW 04:02:31 37° NNW 04:07:43 10° NE
NOSS 3-4 (C) 4.0 04:02:40 37° NNW 04:02:40 37° NNW 04:07:53 10° NE
ATLAS 3B R/B 4.2 03:59:03 24° NNW 04:02:12 31° NNE 04:08:58 10° ENE
IRS-1D 3.9 03:57:35 10° NNE 04:02:32 61° ESE 04:07:32 10° S
Cosmos 1898 Rocket 3.3 04:02:27 76° NW 04:02:49 83° WSW 04:08:04 10° SSE
FengYun 1-2 T 4.2 03:59:39 10° NNE 04:05:21 89° ESE 04:11:01 10° SSW
Cosmos 468 Rocket 3.8 04:10:57 67° W 04:11:12 68° WNW 04:16:25 10° NNE
BREEZE-M DEB (TANK) 4.1 04:12:07 40° SE 04:12:07 40° SE 04:13:58 10° E
Cosmos 1980 Rocket 3.3 04:14:14 26° SSW 04:14:14 26° SSW 04:17:09 10° S
Cosmos 2278 4.2 04:09:08 26° NNW 04:12:17 56° NE 04:17:49 10° SE
SWAS 4.4 04:15:30 66° S 04:15:30 66° S 04:19:02 10° SSE
Cosmos 2369 3.7 04:16:15 54° W 04:16:46 56° WSW 04:22:17 10° S
Cosmos-2242 4.3 04:13:09 11° N 04:17:01 38° ENE 04:20:56 10° SE
BREEZE-M DEB (TANK) 3.2 04:20:47 50° ESE 04:20:47 50° ESE 04:23:53 10° E
COSMO-SKYMED 1 2.4 04:17:23 10° SSE 04:21:30 81° ENE 04:22:50 42° N
Aureole 1 Rocket 4.4 04:20:44 37° NW 04:23:16 52° WSW 04:30:27 10° S
Cosmos 2058 Rocket 4.0 04:19:08 10° N 04:23:23 49° ENE 04:27:40 10° SSE
SKYMED 2 3.4 04:19:27 10° S 04:23:46 68° WSW 04:24:01 66° WNW
Tiangong 0.6 04:27:21 12° S 04:27:21 12° S 04:28:15 10° SSE
Cosmos 1484 Rocket 4.3 04:24:24 10° NNE 04:27:30 31° E 04:30:34 10° SSE
Cosmos 1937 Rocket 3.3 04:25:55 43° NW 04:27:31 70° WSW 04:32:35 10° SSE
Cosmos 858 Rocket 4.4 04:24:54 30° NNW 04:27:32 87° ENE 04:32:44 10° SSE
NOAA 12 4.0 04:23:28 10° NNE 04:28:48 89° ESE 04:34:04 10° SSW
SJ-11-01 4.2 04:25:03 10° N 04:29:40 58° WNW 04:34:15 10° SSW
Cosmos 1346 Rocket 4.3 04:33:28 22° N 04:33:28 22° N 04:34:54 10° N
Cosmos 220 Rocket 3.8 04:28:08 12° SSW 04:31:57 85° ESE 04:36:05 10° NNE
Okean 1 4.3 04:29:24 15° N 04:32:06 40° ENE 04:35:28 10° SSE
Cosmos 372 Rocket 4.4 04:33:38 38° WSW 04:33:38 38° WSW 04:37:59 10° S
Cosmos 2333 Rocket 2.4 04:33:56 20° NNW 04:38:03 74° ENE 04:43:48 10° SE
NOSS 3-1 (A) 4.0 04:37:47 24° NW 04:42:31 83° NE 04:51:14 10° SE
Cosmos 1606 Rocket 3.9 04:43:12 41° W 04:43:12 41° W 04:47:19 10° SSW
Cosmos 2360 Rocket 2.7 04:40:11 15° NNW 04:44:48 59° NE 04:50:20 10° SE
Cosmos 2026 Rocket 3.9 04:41:42 10° S 04:47:45 90° SE 04:53:53 10° N
Cosmos 2237 Rocket 4.5 04:49:27 10° N 04:52:18 14° NNE 04:55:09 10° ENE
USA 234 3.7 04:47:24 10° E 04:53:42 51° N 04:57:47 22° NW
DMSP B5D1-3 4.5 04:48:39 10° SSE 04:53:46 90° ENE 04:58:55 10° NNW
Helios 1A Rocket 2.8 04:52:39 10° S 04:55:46 41° WSW 04:55:46 41° WSW
IGS 5A 3.8 04:54:33 10° NNE 04:58:33 64° ESE 05:02:31 10° S
SeaSat 1 4.1 04:55:58 10° N 04:58:20 16° NNW 04:58:20 16° NNW
RUBIN 8/PSLV 4.4 04:58:21 10° N 05:02:40 69° WNW 05:06:56 10° SSW
Cosmos 2219 Rocket 2.9 04:58:08 10° NNW 05:03:40 52° NE 05:09:09 10° SE
SL-4 R/B 1.3 05:03:15 41° WNW 05:04:15 75° NNE 05:07:26 10° E
ATLAS 5 CENTAUR R/B 3.0 05:05:56 14° NNW 05:05:56 14° NNW 05:07:32 10° NNE
Cosmos 2322 Rocket 2.2 05:01:43 14° NNW 05:06:48 89° ENE 05:12:29 10° SSE
Cosmos 1553 Rocket 4.2 05:01:32 10° N 05:07:57 81° E 05:14:23 10° SSE
Cosmos 1743 4.5 05:05:55 10° SSE 05:08:45 28° E 05:11:36 10° NNE
Cosmos 1726 Rocket 4.3 05:08:07 25° NW 05:09:31 30° W 05:13:15 10° SSW
Meteor 1-26 Rocket 4.1 05:04:12 10° NNW 05:09:40 67° W 05:15:15 10° S
Cosmos 1092 Rocket 3.9 05:05:22 10° SSW 05:11:37 71° W 05:17:53 10° N
Meteor 2-3 Rocket 3.8 05:06:07 10° SSW 05:11:44 53° WNW 05:17:18 10° N
Cosmos 1733 3.5 05:11:06 10° SSE 05:12:47 30° E 05:14:29 10° NNE
CZ-4 R/B 4.2 05:10:08 10° N 05:14:24 37° WNW 05:18:38 10° SW
Nadezhda 4 Rocket 4.5 05:11:10 10° SW 05:16:54 36° WNW 05:22:39 10° N
CZ-2C R/B 4.4 05:15:15 10° NNW 05:16:11 12° NNW 05:16:11 12° NNW
Cosmos 2333 4.3 05:15:23 10° NNW 05:21:11 85° ENE 05:26:54 10° SSE
USA 59 Rocket 1.7 05:20:26 15° WSW 05:21:17 15° WSW 05:24:02 10° SSW
Cosmos 841 Rocket 4.0 05:19:27 10° WSW 05:24:17 37° NW 05:29:10 10° NNE
COSMOS 2406 3.4 05:19:23 10° SW 05:24:53 50° NW 05:30:26 10° NNE
Cosmos 2221 3.1 05:21:05 10° N 05:25:12 57° ENE 05:29:15 10° SSE
Cosmos 1626 Rocket 3.6 05:23:00 10° S 05:27:26 88° ESE 05:31:52 10° N
Cosmos 1833 Rocket 4.4 05:28:01 12° NW 05:29:18 13° NNW 05:31:53 10° N
Cosmos 2151 4.1 05:25:26 10° SSE 05:29:19 46° E 05:33:16 10° NNE
Cosmos 1892 Rocket 4.2 05:26:47 10° SW 05:30:42 32° WNW 05:34:40 10° N
COSMOS 2428 4.0 05:27:12 10° NNW 05:32:27 36° NE 05:37:39 10° ESE
SL-16 R/B 2.8 05:28:40 13° NW 05:33:06 37° WSW 05:38:14 10° S
Cosmos 2082 Rocket 3.1 05:31:54 10° WSW 05:36:40 27° NW 05:41:27 10° NNE
CZ-2D R/B 3.1 05:34:58 10° NNE 05:38:08 68° ESE 05:41:17 10° S
Cosmos 158 Rocket 4.2 05:33:21 10° SSW 05:38:39 77° ESE 05:43:55 10° NNE
Cosmos 1125 Rocket 3.8 05:37:27 10° NNW 05:42:44 69° ENE 05:47:57 10° SSE
COSMOS 2455 4.5 05:41:19 12° WNW 05:43:41 15° WSW 05:46:53 10° SW
Cosmos 2266 Rocket 4.4 05:39:01 10° S 05:45:21 71° E 05:51:40 10° NNE
NOSS 8 (A) 4.4 05:45:59 14° NW 05:48:20 52° SW 05:51:29 10° SSE
Cosmos 405 Rocket 2.3 05:46:00 10° SSW 05:49:12 54° WNW 05:52:27 10° N
Orbus 7S? 2.8 05:47:32 14° WNW 05:49:41 55° SW 05:52:35 10° SE
Cosmos 1238 Rocket 3.4 05:50:58 10° N 05:53:43 39° ENE 05:56:24 10° SSE
Cosmos-2242 4.1 05:50:28 10° NW 05:53:50 23° W 05:57:10 10° SW
ATLAS 3B R/B 3.5 05:46:53 10° NW 05:54:40 57° NE 06:02:07 10° ESE
Cosmos 1842 3.6 05:53:30 10° N 05:56:48 53° ENE 06:00:02 10° SSE
Cosmos 1812 Rocket 3.5 05:53:01 10° NNW 05:57:19 70° W 06:01:37 10° S
COSMO-SKYMED 1 4.4 05:55:53 10° WSW 05:57:23 12° W 05:58:53 10° WNW
Cosmos 1707 2.2 05:54:54 10° N 05:58:04 83° E 06:01:12 10° S
Cosmos 1437 Rocket 2.4 05:55:20 10° NNW 05:58:47 86° W 06:02:14 10° S
Cosmos 1484 Rocket 3.7 05:57:37 10° NNW 06:00:14 20° WNW 06:02:49 10° WSW
Cosmos 2058 Rocket 4.4 05:57:40 10° NW 06:00:54 20° W 06:04:06 10° SW
AQUARIUS 4.1 05:59:36 10° NNE 06:04:02 88° WNW 06:08:27 10° SSW
Cosmos 1602 Rocket 3.6 06:00:56 10° SSW 06:05:22 72° W 06:09:50 10° N
CORIOLIS 4.3 06:05:48 10° N 06:11:04 56° WNW 06:16:19 10° SW
ARIANE 5 R/B 2.6 06:07:17 10° NNE 06:12:29 72° WNW 06:17:40 10° SSW
